SAS135 ESSA-EETN

Flight info

Callsign SAS135
Flight time 0h 55m
Altitude 29000
Route TOVRI N851 RIKUM DCT DOBAN
Aircraft A21N/M-SDE2E3FGHIRWXY/LB1

Departure

Time 2026-05-05 17:54
Airport Stockholm-Arlanda Airport (ESSA)

Arrival

Time 2026-05-05 18:49
Airport Lennart Meri Tallinn Airport (EETN)
Time Latitude Longitude Altitude Speed Heading
2026-05-05 17:20 59.65396 17.93525 141 ft 0 kts 75°
2026-05-05 17:43 59.65394 17.93516 141 ft 3 kts 70°
2026-05-05 17:43 59.65388 17.93481 141 ft 3 kts 70°
2026-05-05 17:43 59.65380 17.93448 141 ft 3 kts 56°
2026-05-05 17:44 59.65365 17.93427 141 ft 3 kts 22°
2026-05-05 17:44 59.65349 17.93415 141 ft 3 kts 39°
2026-05-05 17:44 59.65334 17.93399 141 ft 2 kts
2026-05-05 17:44 59.65329 17.93396 141 ft 0 kts 344°
2026-05-05 17:47 59.65353 17.93383 141 ft 10 kts 345°
2026-05-05 17:48 59.65455 17.93340 141 ft 17 kts 353°
2026-05-05 17:48 59.65524 17.93287 141 ft 7 kts 289°
2026-05-05 17:48 59.65514 17.93169 141 ft 14 kts 257°
2026-05-05 17:48 59.65484 17.92967 141 ft 17 kts 253°
2026-05-05 17:49 59.65434 17.92726 141 ft 20 kts 244°
2026-05-05 17:49 59.65341 17.92513 141 ft 22 kts 218°
2026-05-05 17:49 59.65204 17.92387 141 ft 22 kts 189°
2026-05-05 17:49 59.65080 17.92342 141 ft 18 kts 194°
2026-05-05 17:50 59.64967 17.92296 141 ft 17 kts 191°
2026-05-05 17:50 59.64889 17.92239 141 ft 5 kts 238°
2026-05-05 17:50 59.64850 17.92101 141 ft 12 kts 218°
2026-05-05 17:50 59.64767 17.92062 141 ft 20 kts 191°
2026-05-05 17:51 59.64627 17.92009 141 ft 22 kts 190°
2026-05-05 17:51 59.64464 17.91949 141 ft 26 kts 191°
2026-05-05 17:51 59.64274 17.91882 141 ft 27 kts 190°
2026-05-05 17:51 59.64100 17.91820 141 ft 26 kts 188°
2026-05-05 17:52 59.63927 17.91759 141 ft 25 kts 190°
2026-05-05 17:52 59.63792 17.91627 142 ft 14 kts 220°
2026-05-05 17:52 59.63765 17.91581 142 ft 17 kts 221°
2026-05-05 17:52 59.63731 17.91401 149 ft 8 kts 297°
2026-05-05 17:53 59.63784 17.91337 149 ft 8 kts
2026-05-05 17:53 59.63789 17.91337 149 ft 0 kts
2026-05-05 17:53 59.63900 17.91374 148 ft 51 kts 11°
2026-05-05 17:53 59.64526 17.91613 148 ft 133 kts 10°
2026-05-05 17:54 59.65624 17.91987 429 ft 172 kts 11°
2026-05-05 17:54 59.66799 17.92415 1369 ft 167 kts
2026-05-05 17:54 59.67950 17.92841 2332 ft 178 kts
2026-05-05 17:54 59.69248 17.93306 2996 ft 198 kts
2026-05-05 17:55 59.70632 17.93809 3871 ft 205 kts
2026-05-05 17:55 59.72033 17.94320 4597 ft 210 kts
2026-05-05 17:55 59.73543 17.94826 4940 ft 235 kts
2026-05-05 17:55 59.75080 17.96232 4991 ft 255 kts 38°
2026-05-05 17:56 59.76005 17.99246 4994 ft 263 kts 75°
2026-05-05 17:56 59.76061 18.02862 4995 ft 264 kts 94°
2026-05-05 17:56 59.75844 18.06491 4988 ft 265 kts 97°
2026-05-05 17:56 59.75611 18.10118 4989 ft 265 kts 96°
2026-05-05 17:57 59.75409 18.13753 5016 ft 266 kts 94°
2026-05-05 17:57 59.75323 18.17469 5541 ft 278 kts 90°
2026-05-05 17:57 59.75286 18.21377 6635 ft 284 kts 90°
2026-05-05 17:57 59.75264 18.25304 7959 ft 286 kts 90°
2026-05-05 17:58 59.75258 18.29271 9177 ft 291 kts 86°
2026-05-05 17:58 59.75584 18.33211 10262 ft 299 kts 75°
2026-05-05 17:58 59.76188 18.37338 10878 ft 326 kts 70°
2026-05-05 17:58 59.76990 18.41674 11740 ft 341 kts 67°
2026-05-05 17:59 59.77899 18.46091 12872 ft 349 kts 66°
2026-05-05 17:59 59.78858 18.50581 13935 ft 358 kts 66°
2026-05-05 17:59 59.79854 18.55225 14681 ft 374 kts 66°
2026-05-05 17:59 59.80889 18.60101 15368 ft 390 kts 66°
2026-05-05 18:00 59.81948 18.65170 16073 ft 405 kts 66°
2026-05-05 18:00 59.83027 18.70409 16758 ft 419 kts 66°
2026-05-05 18:00 59.84139 18.75853 17401 ft 431 kts 66°
2026-05-05 18:00 59.85267 18.81423 17802 ft 437 kts 66°
2026-05-05 18:01 59.86405 18.87064 17875 ft 441 kts 66°
2026-05-05 18:01 59.87532 18.92672 17863 ft 442 kts 67°
2026-05-05 18:01 59.88670 18.98352 17868 ft 443 kts 67°
2026-05-05 18:01 59.89810 19.04052 17870 ft 443 kts 67°
2026-05-05 18:02 59.90948 19.09755 17874 ft 443 kts 67°
2026-05-05 18:02 59.92082 19.15449 17867 ft 443 kts 67°
2026-05-05 18:02 59.93216 19.21157 17864 ft 443 kts 67°
2026-05-05 18:02 59.94350 19.26876 17883 ft 443 kts 66°
2026-05-05 18:03 59.95481 19.32597 17869 ft 444 kts 67°
2026-05-05 18:03 59.96517 19.38415 17863 ft 445 kts 77°
2026-05-05 18:03 59.96868 19.44426 17869 ft 441 kts 91°
2026-05-05 18:03 59.96887 19.50537 18088 ft 441 kts 94°
2026-05-05 18:04 59.96820 19.56725 18665 ft 450 kts 95°
2026-05-05 18:04 59.96729 19.62978 19546 ft 452 kts 96°
2026-05-05 18:04 59.96629 19.69275 20427 ft 456 kts 96°
2026-05-05 18:04 59.96523 19.75621 21262 ft 460 kts 96°
2026-05-05 18:05 59.96410 19.82033 22056 ft 464 kts 96°
2026-05-05 18:05 59.96293 19.88507 22825 ft 469 kts 96°
2026-05-05 18:05 59.96172 19.95043 23548 ft 474 kts 96°
2026-05-05 18:05 59.96046 20.01633 24154 ft 478 kts 96°
2026-05-05 18:06 59.95916 20.08278 24774 ft 481 kts 96°
2026-05-05 18:06 59.95827 20.12711 25170 ft 483 kts 96°
2026-05-05 18:06 59.95645 20.21609 25928 ft 487 kts 96°
2026-05-05 18:06 59.95503 20.28370 26548 ft 488 kts 96°
2026-05-05 18:07 59.95356 20.35157 27120 ft 491 kts 97°
2026-05-05 18:07 59.95204 20.41982 27635 ft 494 kts 97°
2026-05-05 18:07 59.95048 20.48852 28136 ft 498 kts 97°
2026-05-05 18:07 59.94888 20.55760 28612 ft 501 kts 97°
2026-05-05 18:08 59.94722 20.62734 28845 ft 502 kts 97°
2026-05-05 18:08 59.94382 20.76664 28856 ft 504 kts 97°
2026-05-05 18:09 59.94017 20.90794 28853 ft 523 kts 97°
2026-05-05 18:09 59.93628 21.05382 28861 ft 527 kts 97°
2026-05-05 18:10 59.93225 21.19961 28855 ft 527 kts 97°
2026-05-05 18:10 59.92807 21.34461 28862 ft 527 kts 97°
2026-05-05 18:11 59.92369 21.49053 28862 ft 527 kts 98°
2026-05-05 18:11 59.91916 21.63606 28782 ft 526 kts 98°
2026-05-05 18:11 59.91690 21.70782 28551 ft 510 kts 98°
2026-05-05 18:12 59.91468 21.77726 28284 ft 495 kts 98°
2026-05-05 18:12 59.91248 21.84475 28019 ft 480 kts 98°
2026-05-05 18:12 59.91030 21.91015 27759 ft 468 kts 98°
2026-05-05 18:12 59.90809 21.97453 27496 ft 465 kts 99°
2026-05-05 18:13 59.90583 22.03878 27234 ft 464 kts 99°
2026-05-05 18:13 59.90357 22.10286 26969 ft 463 kts 99°
2026-05-05 18:13 59.90129 22.16676 26705 ft 461 kts 99°
2026-05-05 18:13 59.89899 22.23041 26429 ft 460 kts 99°
2026-05-05 18:14 59.89670 22.29298 26058 ft 458 kts 99°
2026-05-05 18:14 59.89437 22.35603 25641 ft 456 kts 99°
2026-05-05 18:14 59.89202 22.41878 25266 ft 453 kts 99°
2026-05-05 18:14 59.88966 22.48115 24899 ft 450 kts 99°
2026-05-05 18:15 59.88728 22.54318 24536 ft 448 kts 99°
2026-05-05 18:15 59.88488 22.60480 24172 ft 446 kts 99°
2026-05-05 18:15 59.88247 22.66612 23823 ft 443 kts 99°
2026-05-05 18:15 59.88004 22.72721 23469 ft 441 kts 99°
2026-05-05 18:16 59.87759 22.78797 23065 ft 439 kts 99°
2026-05-05 18:16 59.87513 22.84843 22652 ft 437 kts 99°
2026-05-05 18:16 59.87265 22.90846 22245 ft 434 kts 99°
2026-05-05 18:16 59.87016 22.96819 21844 ft 431 kts 99°
2026-05-05 18:17 59.86770 23.02664 21401 ft 428 kts 99°
2026-05-05 18:17 59.86521 23.08533 21003 ft 423 kts 99°
2026-05-05 18:17 59.86271 23.14347 20620 ft 420 kts 99°
2026-05-05 18:17 59.86021 23.20109 20241 ft 417 kts 100°
2026-05-05 18:18 59.85769 23.25845 19889 ft 415 kts 100°
2026-05-05 18:18 59.85515 23.31548 19539 ft 414 kts 100°
2026-05-05 18:18 59.85260 23.37237 19172 ft 413 kts 100°
2026-05-05 18:18 59.85002 23.42924 18808 ft 411 kts 100°
2026-05-05 18:19 59.84748 23.48503 18454 ft 409 kts 100°
2026-05-05 18:19 59.84489 23.54119 18092 ft 407 kts 100°
2026-05-05 18:19 59.84229 23.59702 17803 ft 404 kts 100°
2026-05-05 18:19 59.83969 23.65250 17531 ft 402 kts 100°
2026-05-05 18:20 59.83709 23.70756 17221 ft 398 kts 100°
2026-05-05 18:20 59.83448 23.76222 16955 ft 395 kts 100°
2026-05-05 18:20 59.83186 23.81646 16690 ft 393 kts 101°
2026-05-05 18:20 59.82923 23.87048 16423 ft 391 kts 101°
2026-05-05 18:21 59.82659 23.92417 16164 ft 390 kts 101°
2026-05-05 18:21 59.82394 23.97764 15907 ft 388 kts 101°
2026-05-05 18:21 59.82129 24.03089 15649 ft 386 kts 101°
2026-05-05 18:21 59.81865 24.08323 15404 ft 385 kts 101°
2026-05-05 18:22 59.81598 24.13601 15145 ft 383 kts 101°
2026-05-05 18:22 59.81329 24.18864 14892 ft 382 kts 101°
2026-05-05 18:22 59.81062 24.24065 14646 ft 374 kts 101°
2026-05-05 18:22 59.80801 24.29129 14402 ft 366 kts 101°
2026-05-05 18:23 59.80538 24.34151 14235 ft 365 kts 101°
2026-05-05 18:23 59.80265 24.39143 13964 ft 361 kts 104°
2026-05-05 18:23 59.79625 24.43811 13645 ft 342 kts 122°
2026-05-05 18:23 59.78477 24.47856 13063 ft 332 kts 132°
2026-05-05 18:24 59.77168 24.51594 12536 ft 327 kts 134°
2026-05-05 18:24 59.75832 24.55217 12042 ft 323 kts 135°
2026-05-05 18:24 59.74498 24.58780 11557 ft 320 kts 135°
2026-05-05 18:24 59.73161 24.62258 11097 ft 313 kts 139°
2026-05-05 18:25 59.71556 24.64981 10655 ft 298 kts 156°
2026-05-05 18:25 59.70965 24.65712 10507 ft 295 kts 158°
2026-05-05 18:25 59.68014 24.68972 9901 ft 290 kts 160°
2026-05-05 18:25 59.66241 24.70859 9811 ft 289 kts 160°
2026-05-05 18:26 59.64468 24.72728 9297 ft 288 kts 160°
2026-05-05 18:26 59.62699 24.74547 8732 ft 286 kts 159°
2026-05-05 18:26 59.60923 24.76310 8179 ft 284 kts 160°
2026-05-05 18:26 59.59213 24.78165 7792 ft 282 kts 147°
2026-05-05 18:27 59.57948 24.81128 7336 ft 286 kts 120°
2026-05-05 18:27 59.57193 24.84747 6906 ft 284 kts 111°
2026-05-05 18:27 59.56570 24.88437 6458 ft 282 kts 110°
2026-05-05 18:27 59.55961 24.92039 6027 ft 279 kts 110°
2026-05-05 18:28 59.54585 24.99078 5139 ft 272 kts 127°
2026-05-05 18:28 59.53204 25.01489 5022 ft 264 kts 157°
2026-05-05 18:28 59.51469 25.02457 5018 ft 259 kts 176°
2026-05-05 18:29 59.49675 25.02811 5010 ft 259 kts 180°
2026-05-05 18:29 59.47908 25.03558 5014 ft 265 kts 158°
2026-05-05 18:29 59.46478 25.05779 5018 ft 270 kts 129°
2026-05-05 18:29 59.45722 25.09034 5015 ft 254 kts 101°
2026-05-05 18:30 59.45585 25.11250 5015 ft 241 kts 92°
2026-05-05 18:30 59.45525 25.14460 5017 ft 231 kts 90°
2026-05-05 18:30 59.45485 25.18711 4583 ft 233 kts 90°
2026-05-05 18:30 59.45461 25.20806 4400 ft 231 kts 90°
2026-05-05 18:31 59.45425 25.23934 4104 ft 227 kts 90°
2026-05-05 18:31 59.45379 25.28022 3691 ft 225 kts 90°
2026-05-05 18:31 59.45354 25.30095 3477 ft 225 kts 90°
2026-05-05 18:31 59.45248 25.33154 3226 ft 224 kts 105°
2026-05-05 18:32 59.44498 25.35710 3197 ft 219 kts 141°
2026-05-05 18:32 59.43177 25.37012 3195 ft 211 kts 176°
2026-05-05 18:32 59.41782 25.36623 3210 ft 201 kts 213°
2026-05-05 18:32 59.40755 25.34874 3201 ft 195 kts 236°
2026-05-05 18:33 59.39958 25.32722 3193 ft 195 kts 239°
2026-05-05 18:33 59.39241 25.30467 3201 ft 194 kts 251°
2026-05-05 18:33 59.39129 25.27926 3221 ft 188 kts 285°
2026-05-05 18:33 59.39644 25.25578 3207 ft 188 kts 298°
2026-05-05 18:34 59.40304 25.23350 3211 ft 189 kts 300°
2026-05-05 18:34 59.40989 25.21128 3229 ft 196 kts 300°
2026-05-05 18:34 59.41737 25.18707 3208 ft 216 kts 300°
2026-05-05 18:34 59.42499 25.16126 3202 ft 217 kts 292°
2026-05-05 18:35 59.42602 25.13383 3231 ft 196 kts 257°
2026-05-05 18:35 59.42174 25.10952 3216 ft 188 kts 254°
2026-05-05 18:35 59.41798 25.08498 3083 ft 189 kts 259°
2026-05-05 18:35 59.41557 25.05934 2693 ft 190 kts 264°
2026-05-05 18:36 59.41429 25.03399 2623 ft 185 kts 268°
2026-05-05 18:36 59.41361 25.00877 2616 ft 185 kts 270°
2026-05-05 18:36 59.41328 24.98339 2624 ft 186 kts 270°
2026-05-05 18:36 59.41314 24.95798 2621 ft 186 kts 271°
2026-05-05 18:37 59.41310 24.93260 2614 ft 186 kts 272°
2026-05-05 18:37 59.41311 24.90732 2622 ft 185 kts 272°
2026-05-05 18:37 59.41316 24.88205 2621 ft 185 kts 271°
2026-05-05 18:37 59.41320 24.85670 2504 ft 186 kts 272°
2026-05-05 18:38 59.41325 24.83149 2254 ft 184 kts 272°
2026-05-05 18:38 59.41329 24.80637 2219 ft 184 kts 271°
2026-05-05 18:38 59.41334 24.78117 2220 ft 185 kts 271°
2026-05-05 18:38 59.41337 24.75635 2224 ft 184 kts 272°
2026-05-05 18:39 59.41417 24.73140 2211 ft 183 kts 287°
2026-05-05 18:39 59.42145 24.71152 2221 ft 184 kts 324°
2026-05-05 18:39 59.43389 24.70522 2221 ft 193 kts
2026-05-05 18:39 59.44631 24.71587 2223 ft 204 kts 39°
2026-05-05 18:40 59.45492 24.73850 2224 ft 210 kts 57°
2026-05-05 18:40 59.46181 24.76400 2222 ft 212 kts 59°
2026-05-05 18:40 59.46843 24.78986 2204 ft 211 kts 60°
2026-05-05 18:40 59.47500 24.81568 2192 ft 211 kts 59°
2026-05-05 18:41 59.48150 24.84157 2195 ft 211 kts 60°
2026-05-05 18:41 59.48804 24.86742 2193 ft 211 kts 60°
2026-05-05 18:41 59.49463 24.89323 2191 ft 211 kts 59°
2026-05-05 18:41 59.50095 24.91882 2192 ft 212 kts 65°
2026-05-05 18:42 59.50369 24.94736 2195 ft 214 kts 86°
2026-05-05 18:42 59.50373 24.97675 2190 ft 215 kts 89°
2026-05-05 18:42 59.50336 25.00624 2192 ft 216 kts 90°
2026-05-05 18:42 59.50294 25.03575 2192 ft 216 kts 90°
2026-05-05 18:43 59.50254 25.06520 2190 ft 215 kts 90°
2026-05-05 18:43 59.50214 25.09479 2192 ft 217 kts 90°
2026-05-05 18:43 59.50171 25.12464 2180 ft 219 kts 90°
2026-05-05 18:43 59.50130 25.15473 2186 ft 220 kts 90°
2026-05-05 18:44 59.50092 25.18487 2182 ft 220 kts 90°
2026-05-05 18:44 59.49764 25.21402 2174 ft 219 kts 121°
2026-05-05 18:44 59.48722 25.23456 2180 ft 211 kts 158°
2026-05-05 18:44 59.47338 25.23987 2189 ft 201 kts 191°
2026-05-05 18:45 59.45966 25.23525 2177 ft 200 kts 199°
2026-05-05 18:45 59.44738 25.22369 2187 ft 194 kts 223°
2026-05-05 18:45 59.43761 25.20619 2186 ft 193 kts 229°
2026-05-05 18:45 59.42805 25.18726 2182 ft 193 kts 230°
2026-05-05 18:46 59.42061 25.16657 2185 ft 186 kts 253°
2026-05-05 18:46 59.41690 25.14230 2191 ft 186 kts 260°
2026-05-05 18:46 59.41482 25.11728 2189 ft 186 kts 266°
2026-05-05 18:46 59.41375 25.09215 2185 ft 184 kts 269°
2026-05-05 18:47 59.41323 25.06699 2189 ft 184 kts 270°
2026-05-05 18:47 59.41300 25.04179 2195 ft 185 kts 271°
2026-05-05 18:47 59.41292 25.01664 2169 ft 185 kts 271°
2026-05-05 18:47 59.41291 24.99095 1689 ft 194 kts 272°
2026-05-05 18:48 59.41296 24.96441 1281 ft 196 kts 271°
2026-05-05 18:48 59.41303 24.93717 867 ft 199 kts 270°
2026-05-05 18:48 59.41309 24.91046 610 ft 193 kts 270°
2026-05-05 18:48 59.41306 24.88529 424 ft 173 kts 269°
2026-05-05 18:49 59.41307 24.86387 228 ft 143 kts 272°
2026-05-05 18:49 59.41318 24.84634 163 ft 113 kts 269°
2026-05-05 18:49 59.41322 24.83678 167 ft 26 kts 270°
2026-05-05 18:49 59.41323 24.83401 167 ft 37 kts 271°
2026-05-05 18:50 59.41346 24.82796 164 ft 50 kts 284°
2026-05-05 18:50 59.41434 24.82422 165 ft 0 kts 296°
2026-05-05 18:51 59.41445 24.82385 165 ft 14 kts 301°
2026-05-05 18:51 59.41492 24.82191 165 ft 17 kts 285°
2026-05-05 18:51 59.41503 24.81955 165 ft 18 kts 271°
2026-05-05 18:52 59.41505 24.81681 165 ft 22 kts 270°
2026-05-05 18:52 59.41505 24.81405 165 ft 14 kts 270°
2026-05-05 18:52 59.41505 24.81250 165 ft 13 kts 271°
2026-05-05 18:52 59.41506 24.81044 165 ft 17 kts 271°
2026-05-05 18:53 59.41504 24.80806 165 ft 18 kts 270°
2026-05-05 18:53 59.41509 24.80610 165 ft 13 kts 281°
2026-05-05 18:53 59.41553 24.80518 165 ft 9 kts 340°
2026-05-05 18:53 59.41634 24.80507 165 ft 17 kts 360°
2026-05-05 18:54 59.41731 24.80426 165 ft 12 kts 298°
2026-05-05 18:54 59.41747 24.80254 165 ft 11 kts 266°
2026-05-05 18:54 59.41731 24.80208 165 ft 1 kts 208°
2026-05-05 18:54 59.41701 24.80196 165 ft 1 kts 184°
2026-05-05 18:55 59.41694 24.80195 165 ft 0 kts 184°